www.pogodaiklimat.ru
Время
и дата
10:54 30.12
11:54 30.12
12:54 30.12
13:54 30.12
14:54 30.12
15:54 30.12
16:54 30.12
17:54 30.12
18:54 30.12
19:54 30.12
20:54 30.12
21:54 30.12
22:54 30.12
23:54 30.12
00:54 31.12
01:54 31.12
02:54 31.12
03:54 31.12
04:54 31.12
05:15 31.12
05:24 31.12
05:54 31.12
06:07 31.12
06:51 31.12
06:54 31.12
07:07 31.12
07:54 31.12
08:54 31.12
09:03 31.12
09:54 31.12
10:24 31.12
10:32 31.12
10:54 31.12
11:14 31.12
11:38 31.12
11:54 31.12
12:24 31.12
12:42 31.12
12:54 31.12
13:16 31.12
13:23 31.12
13:47 31.12
13:54 31.12
14:10 31.12
14:40 31.12
14:54 31.12
15:54 31.12
16:54 31.12
Ветер
(напр.,м/с)
Видим. Явления Облачность Т
(С)
Тd
(С)
f
(%)
Тe
(С)
Тes
(С)
Комфортность P
(гПа)
Po
(гПа)
Тmin
(С)
Tmax
(С)
R
(мм)
R24
(мм)
S
(см)
Ю 3 16 км ясно +0.6 -7.2 56 -5 -4 1009.7 964.9
Ю 3 16 км ясно +2.2 -6.1 54 -4 -3 1008.9 963.9 -11.1 +2.2
Ю 4 16 км ясно +3.9 -6.7 46 -2 -2 1007.0 962.3
Ю 3 16 км ясно +5.6 -6.7 41 +1 +2 1006.0 961.3
ЮЗ 4
{5}
16 км ясно +6.1 -7.8 36 +2 +2 1005.5 961.0
ЮЗ 2 16 км ясно +6.1 -7.2 38 +3 +4 1005.7 961.3
Ю 1 16 км ясно +3.9 -7.2 44 +1 +1 1006.0 961.3
Ю 1 16 км ясно -0.6 -8.3 56 -5 -5 1006.2 961.3 -1.1 +6.1
Ю 2 16 км ясно -2.2 -8.9 60 -8 -8 1006.5 961.6
Ю 2 16 км ясно -2.2 -7.8 65 -8 -8 1006.4 961.6
Ю 1 16 км ясно -1.1 -7.2 63 -4 -4 1006.5 961.6
В 1 16 км ясно -2.8 -7.8 68 -8 -8 1005.8 961.3
штиль 0 14 км ясно -5.0 -8.9 74 -6 -6 1005.8 961.0
СВ 1 13 км ясно -7.8 -10.6 80 -14 -14 1004.2 959.7 -7.8
ЮЗ 1 14 км ясно -6.1 -9.4 77 -10 -10 1003.5 959.0
штиль 0 14 км ясно -7.2 -10.6 77 -8 -8 1002.3 958.1
С 1 13 км ясно -6.7 -10.0 77 -12 -12 1002.0 957.7
СЗ 2 13 км ясно -5.6 -8.3 81 -12 -12 1001.1 957.1
С 1 11 км ясно -8.3 -10.6 83 -14 -14 1000.4 956.1
С 1 11 км 5/5 180 м -7.2 -10.0 80 -13 -13 955.8
СЗ 1 11 км 8/8 180 м -5.6 -7.2 88 -11 -11 956.1
С 1 10 км дымка 10/10 150 м -5.0 -6.7 88 -11 -11 1000.2 955.8 -8.9 -5.0
С 2 10 км дымка 10/10 120 м -4.4 -6.7 84 -11 -11 956.4
С 1 3 км дымка 10/10 60 м -3.0 -4.0 93 -7 -7 956.8
С 1 3 км дымка 10/10 60 м -2.8 -3.9 92 -7 -7 1001.1 956.8
С 1 1 км дымка ?/? -2.2 -3.3 92 -6 -6 957.1
С 2 800 м переохлажденный туман ?/? -1.7 -2.8 92 -8 -8 1001.7 957.4
С 2 1 км дымка 10/10 60 м -1.7 -3.3 89 -8 -8 1002.3 957.7
С 2 2 км дымка 10/10 60 м -1.7 -3.3 89 -8 -8 958.4
С 2 2 км дымка 10/10 90 м -1.7 -2.8 92 -8 -8 1003.3 958.7
С 3 1 км дымка 10/10 90 м -1.7 -2.8 92 -9 -9 959.7
С 3 2 км дымка 10/10 90 м -1.1 -2.8 88 -8 -8 960.0
С 3 2 км дымка 10/10 90 м -2.2 -3.9 88 -10 -10 1004.8 960.0
С 4 3 км дымка 10/10 120 м -2.8 -4.4 89 -11 -11 960.0
С 3 5 км дымка 10/10 150 м -3.9 -5.6 88 -12 -12 960.0
С 3 5 км дымка 10/10 150 м -3.9 -5.6 88 -12 -12 1005.0 960.0 -5.6 -1.1
С 4 4 км дымка 10/10 150 м -4.4 -6.1 88 -13 -13 960.0
С 4 3 км дымка 10/10 120 м -3.9 -5.6 88 -13 -13 960.3
С 2 3 км дымка 10/10 120 м -3.9 -5.6 88 -11 -11 1006.1 961.3
С 4
{5}
3 км дымка 10/10 120 м -4.4 -6.1 88 -14 -14 961.6
С 4
{5}
3 км дымка 10/10 120 м -5.0 -6.7 88 -14 -14 961.6
С 4 2 км дымка 10/10 150 м -5.6 -7.2 88 -15 -15 961.3
С 4
{5}
2 км дымка 10/10 150 м -5.6 -7.2 88 -15 -15 1006.6 961.6
С 3
{5}
3 км дымка 10/10 150 м -5.6 -7.2 88 -14 -14 962.3
С 4
{6}
5 км дымка 10/10 180 м -6.1 -8.3 84 -16 -16 962.6
С 4
{7}
5 км дымка 10/10 180 м -6.1 -8.3 84 -16 -16 1008.0 962.9
С 5
{6}
10 км дымка 10/10 210 м -6.1 -8.3 84 -16 -16 1008.9 963.9
С 4
{5}
11 км 10/10 270 м -6.7 -8.9 84 -16 -16 1010.3 964.9
Местоположение метеостанции Lincoln Municipal Airport: широта 40.8311 долгота -96.7644 высота над уровнем моря 370 м.
В архиве по умолчанию представлена погода в Линкольне за последние 1-2 суток. Обновление информации о фактической погоде в базе происходит ежечасно! Архивные данные за месяц целиком и за предыдущие месяцы Вы можете получить, выбрав интересующий диапазон дат из раскрывающегося списка и нажав кнопку "Ввод!".
Внимание! Архив погоды МЕТАР в базе сайта по станциям, не включенным в климатический монитор, хранится не более 60 дней. Нет смысла пытаться выбрать более раннюю дату.
*Определитесь, кто Вы:
Внимание! Время в таблицах - местное (без учета летнего времени). Для получения всемирного времени необходимо вычесть поправку, которая равна -6 ч.
Смотрите также архив погоды в соседних городах и на ближайших метеорологических станциях:
Партнеры нашего сайта:      
Пояснения к столбцам:
  • Ветер - указаны скорость ветра в м/с - средняя за 10 мин, порывы в срок и между сроками (в фигурных скобках) и направление, откуда дует ветер: С - северный,
  • СВ - северо-восточный, В - восточный, ЮВ - юго-восточный, Ю - южный, ЮЗ - юго-западный, З - западный, СЗ - северо-западный.
  • Видимость - горизонтальная дальность видимости в метрах или километрах. При видимости от 1 до 10 км при отсутствии осадков обычно наблюдается дымка, при ухудшении видимости до 1 км и менее - туман. В сухую погоду видимость может ухудшаться дымом, пылью или мглою.
  • Явления - указаны атмосферные явления, наблюдавшиеся в срок или в последний час перед сроком; фигурными скобками обозначены явления, наблюдавшиеся между сроками (за 1-3 часа до срока); квадратными скобками обозначены град или гололедные отложения с указанием их диаметра в мм.
  • Облачность - указаны через наклонную черту общая и нижняя облачность в баллах и высота нижней границы облаков в метрах; квадратными скобками обозначены формы облаков: Ci - перистые, Cs - перисто-слоистые, Cc - перисто-кучевые, Ac - высококучевые, As - высокослоистые, Sc - слоисто-кучевые, Ns - слоисто-дождевые, Cu - кучевые, Cb - кучево-дождевые. Подробнее классификацию облаков см. в Атласе облаков (PDF).
  • T - Температура воздуха - температура, измеренная на высоте 2 м над землей.
  • Td - Температура точки росы - температура, при понижении до которой содержащийся в воздухе водяной пар достигнет насыщения.
  • f - Относительная влажность воздуха - влажноcть воздуха, измеренная на высоте 2 м над землей.
  • Te - Эффективная температура - температура, которую ощущает одетый по сезону человек в тени. Характеристика душности погоды. При расчете учитывается влияние влажности воздуха и скорости ветра на теплоощущения человека.
  • Tes - Эффективная температура на солнце - температура, которую ощущает человек, с поправкой на солнечный нагрев. Характеристика знойности погоды. Зависит от высоты солнца над горизонтом, облачности и скорости ветра. Ночью, в пасмурную погоду, а также при ветре 12 м/с и более поправка равна нулю.
  • P - Атмосферное давление - приведенное к уровню моря атмосферное давление.
  • Po - Атмосферное давление - измеренное на уровне метеостанции атмосферное давление.
  • Tmin - Минимальная температура - минимум температуры воздуха на высоте 2 м над землей.
  • Tmax - Максимальная температура - максимум температуры воздуха на высоте 2 м над землей.
  • R - Количество осадков - Количество выпавших осадков за период времени, мм. При наведении курсора мыши на число - период времени, за который выпало указанное количество осадков.
  • R24 - Количество осадков - Количество выпавших осадков за 24 часа, мм.
  • S - Снежный покров - Высота снежного покрова, см. При наведении курсора мыши на число - состояние снежного покрова и степень покрытия местности в баллах.